This is the latest recevied weather packets stored in our database for station/object KC5TIL. If no packets are shown the sender has not sent any weather packets the latest 10 day(s).
| Time | Temp. | Humidity | Pressure | Rain* | Wind** | Luminosity | Snow |
|---|---|---|---|---|---|---|---|
| 1788369207 | 35° C | 48% | 1016.3 hPa | 0 mm | - | 766 W/m² | - |
| 1788368903 | 35.56° C | 48% | 1016.6 hPa | 0 mm | - | 768 W/m² | - |
| 1788368598 | 35° C | 50% | 1016.4 hPa | 0 mm | - | 757 W/m² | - |
| 1788368294 | 35° C | 49% | 1016.4 hPa | 0 mm | - | 807 W/m² | - |
| 1788367993 | 34.44° C | 49% | 1016.5 hPa | 0 mm | - | 814 W/m² | - |
| 1788367707 | 35° C | 48% | 1016.6 hPa | 0 mm | - | 820 W/m² | - |
| 1788367383 | 33.89° C | 49% | 1016.7 hPa | 0 mm | - | 836 W/m² | - |
| 1788367072 | 33.89° C | 49% | 1016.7 hPa | 0 mm | - | 810 W/m² | - |
| 1788366771 | 33.89° C | 50% | 1016.6 hPa | 0 mm | - | 848 W/m² | - |
| 1788366469 | 33.89° C | 51% | 1016.6 hPa | 0 mm | - | 833 W/m² | - |
| 1788366165 | 33.89° C | 50% | 1016.9 hPa | 0 mm | - | 780 W/m² | - |
| 1788365859 | 33.89° C | 51% | 1016.9 hPa | 0 mm | - | 744 W/m² | - |
| 1788365555 | 34.44° C | 51% | 1017 hPa | 0 mm | - | 756 W/m² | - |
| 1788365252 | 33.89° C | 52% | 1016.8 hPa | 0 mm | - | 719 W/m² | - |
| 1788364946 | 33.89° C | 52% | 1016.8 hPa | 0 mm | - | 717 W/m² | - |
| 1788364653 | 33.89° C | 54% | 1016.9 hPa | 0 mm | - | 697 W/m² | - |
| 1788364343 | 33.33° C | 54% | 1016.9 hPa | 0 mm | - | 683 W/m² | - |
| 1788364038 | 32.78° C | 57% | 1016.9 hPa | 0 mm | - | 629 W/m² | - |
| 1788363732 | 33.33° C | 56% | 1016.8 hPa | 0 mm | - | 598 W/m² | - |
| 1788363426 | 33.33° C | 54% | 1017.1 hPa | 0 mm | - | 623 W/m² | - |
| 1788363127 | 32.78° C | 57% | 1016.8 hPa | 0 mm | - | 613 W/m² | - |
| 1788362823 | 32.78° C | 57% | 1016.9 hPa | 0 mm | - | 569 W/m² | - |
| 1788362518 | 32.22° C | 59% | 1017 hPa | 0 mm | - | 595 W/m² | - |
| 1788362214 | 32.22° C | 59% | 1016.9 hPa | 0 mm | - | 530 W/m² | - |
| 1788361908 | 31.67° C | 59% | 1016.9 hPa | 0 mm | - | 535 W/m² | - |
* Rain latest hour (hover to see other rain measurements)
** Current wind speed in m/s (hover to see current wind gust speed)